Time,TemperatureF,DewpointF,PressureIn,WindDirection,WindDirectionDegrees,WindSpeedMPH,WindSpeedGustMPH,Humidity,HourlyPrecipIn,Conditions,Clouds,dailyrainin,SoftwareType,DateUTC
2013-03-25 00:03:00,30.0,29.0,29.66,NNE,32,6.0,12.0,96,0.00,,,0.00,,2013-03-25 05:03:00,
2013-03-25 00:12:00,30.0,29.0,29.66,NNE,32,6.0,12.0,96,0.00,,,0.00,,2013-03-25 05:12:00,
2013-03-25 00:22:00,29.0,28.0,29.66,NNE,31,7.0,14.0,96,0.00,,,0.00,,2013-03-25 05:22:00,
2013-03-25 00:32:00,29.0,28.0,29.67,North,360,7.0,15.0,96,0.00,,,0.00,,2013-03-25 05:32:00,
2013-03-25 00:42:00,29.0,28.0,29.67,North,360,7.0,15.0,96,0.00,,,0.00,,2013-03-25 05:42:00,
2013-03-25 00:52:00,29.0,28.0,29.67,NNE,20,6.0,13.0,96,0.00,,,0.00,,2013-03-25 05:52:00,
2013-03-25 01:02:00,29.0,28.0,29.67,NNE,20,6.0,13.0,96,0.00,,,0.00,,2013-03-25 06:02:00,
2013-03-25 01:12:00,29.0,28.0,29.67,NNE,20,6.0,13.0,96,0.00,,,0.00,,2013-03-25 06:12:00,
2013-03-25 01:22:00,29.0,28.0,29.67,NNE,26,8.0,14.0,96,0.00,,,0.00,,2013-03-25 06:22:00,
2013-03-25 01:32:00,29.0,28.0,29.68,NNE,22,7.0,13.0,96,0.00,,,0.00,,2013-03-25 06:32:00,
2013-03-25 01:42:00,29.0,28.0,29.68,NNE,22,7.0,13.0,96,0.00,,,0.00,,2013-03-25 06:42:00,
2013-03-25 01:52:00,29.0,28.0,29.68,NNE,21,6.0,11.0,96,0.00,,,0.00,,2013-03-25 06:52:00,
2013-03-25 02:02:00,29.0,28.0,29.68,NNE,13,6.0,10.0,96,0.00,,,0.00,,2013-03-25 07:02:00,
2013-03-25 02:12:00,29.0,28.0,29.68,NNE,13,6.0,10.0,96,0.00,,,0.00,,2013-03-25 07:12:00,
2013-03-25 02:22:00,29.0,28.0,29.68,NNE,13,6.0,10.0,96,0.00,,,0.00,,2013-03-25 07:22:00,
2013-03-25 02:32:00,29.0,28.0,29.68,NNE,13,5.0,8.0,96,0.00,,,0.00,,2013-03-25 07:32:00,
2013-03-25 02:42:00,29.0,28.0,29.68,NNE,13,5.0,8.0,96,0.00,,,0.00,,2013-03-25 07:42:00,
2013-03-25 02:53:00,29.0,28.0,29.68,NNE,26,6.0,10.0,96,0.00,,,0.00,,2013-03-25 07:53:00,
2013-03-25 03:02:00,29.0,28.0,29.69,NNE,14,7.0,10.0,96,0.00,,,0.00,,2013-03-25 08:02:00,
2013-03-25 03:12:00,29.0,28.0,29.69,NNE,14,7.0,10.0,96,0.00,,,0.00,,2013-03-25 08:12:00,
2013-03-25 03:22:00,29.0,28.0,29.69,NNE,14,7.0,10.0,96,0.00,,,0.00,,2013-03-25 08:22:00,
2013-03-25 03:32:00,28.0,27.0,29.68,North,11,3.0,6.0,96,0.00,,,0.00,,2013-03-25 08:32:00,
2013-03-25 03:42:00,28.0,27.0,29.68,North,11,3.0,6.0,96,0.00,,,0.00,,2013-03-25 08:42:00,
2013-03-25 03:52:00,28.0,27.0,29.68,NNW,348,3.0,7.0,96,0.00,,,0.00,,2013-03-25 08:52:00,
2013-03-25 04:02:00,28.0,27.0,29.68,North,5,3.0,8.0,95,0.00,,,0.00,,2013-03-25 09:02:00,
2013-03-25 04:12:00,28.0,27.0,29.68,North,5,3.0,8.0,95,0.00,,,0.00,,2013-03-25 09:12:00,
2013-03-25 04:22:00,28.0,27.0,29.69,NNE,25,5.0,9.0,95,0.00,,,0.00,,2013-03-25 09:22:00,
2013-03-25 04:33:00,28.0,27.0,29.69,North,9,5.0,9.0,95,0.00,,,0.00,,2013-03-25 09:33:00,
2013-03-25 04:43:00,28.0,27.0,29.69,North,9,5.0,9.0,95,0.00,,,0.00,,2013-03-25 09:43:00,
2013-03-25 04:52:00,28.0,27.0,29.69,North,355,7.0,9.0,95,0.00,,,0.00,,2013-03-25 09:52:00,
2013-03-25 05:03:00,29.0,28.0,29.70,NNE,17,5.0,9.0,95,0.00,,,0.00,,2013-03-25 10:03:00,
2013-03-25 05:12:00,29.0,28.0,29.70,NNE,17,5.0,9.0,95,0.00,,,0.00,,2013-03-25 10:12:00,
2013-03-25 05:22:00,28.0,27.0,29.70,North,355,5.0,8.0,96,0.00,,,0.00,,2013-03-25 10:22:00,
2013-03-25 05:32:00,29.0,28.0,29.70,North,360,4.0,9.0,96,0.00,,,0.00,,2013-03-25 10:32:00,
2013-03-25 05:42:00,29.0,28.0,29.70,North,360,4.0,9.0,96,0.00,,,0.00,,2013-03-25 10:42:00,
2013-03-25 05:54:00,29.0,28.0,29.70,North,355,4.0,9.0,96,0.00,,,0.00,,2013-03-25 10:54:00,
2013-03-25 06:03:00,29.0,28.0,29.71,North,355,4.0,8.0,96,0.00,,,0.00,,2013-03-25 11:03:00,
2013-03-25 06:12:00,29.0,28.0,29.71,North,355,4.0,8.0,96,0.00,,,0.00,,2013-03-25 11:12:00,
2013-03-25 06:23:00,29.0,28.0,29.71,NNW,344,4.0,7.0,96,0.00,,,0.00,,2013-03-25 11:23:00,
2013-03-25 06:32:00,29.0,28.0,29.71,NNE,13,4.0,8.0,96,0.00,,,0.00,,2013-03-25 11:32:00,
2013-03-25 06:42:00,29.0,28.0,29.71,NNE,13,4.0,8.0,96,0.00,,,0.00,,2013-03-25 11:42:00,
2013-03-25 06:53:00,29.0,28.0,29.71,NW,326,4.0,9.0,96,0.00,,,0.00,,2013-03-25 11:53:00,
2013-03-25 07:02:00,29.0,28.0,29.72,North,5,4.0,9.0,96,0.00,,,0.00,,2013-03-25 12:02:00,
2013-03-25 07:13:00,29.0,28.0,29.72,North,5,4.0,9.0,96,0.00,,,0.00,,2013-03-25 12:13:00,
2013-03-25 07:23:00,29.0,28.0,29.72,NNW,342,5.0,9.0,96,0.00,,,0.00,,2013-03-25 12:23:00,
2013-03-25 07:32:00,29.0,28.0,29.72,North,350,5.0,12.0,96,0.00,,,0.00,,2013-03-25 12:32:00,
2013-03-25 07:42:00,29.0,28.0,29.72,North,350,5.0,12.0,96,0.00,,,0.00,,2013-03-25 12:42:00,
2013-03-25 07:53:00,29.0,28.0,29.73,North,10,5.0,12.0,96,0.00,,,0.00,,2013-03-25 12:53:00,
2013-03-25 08:02:00,30.0,29.0,29.73,North,355,6.0,10.0,96,0.00,,,0.00,,2013-03-25 13:02:00,
2013-03-25 08:13:00,30.0,29.0,29.73,North,355,6.0,10.0,96,0.00,,,0.00,,2013-03-25 13:13:00,
2013-03-25 08:22:00,30.0,29.0,29.74,North,360,7.0,11.0,95,0.00,,,0.00,,2013-03-25 13:22:00,
2013-03-25 08:32:00,30.0,29.0,29.75,NNW,331,5.0,11.0,95,0.00,,,0.00,,2013-03-25 13:32:00,
2013-03-25 08:42:00,30.0,29.0,29.75,NNW,331,5.0,11.0,95,0.00,,,0.00,,2013-03-25 13:42:00,
2013-03-25 08:52:00,30.0,29.0,29.75,North,350,7.0,13.0,95,0.00,,,0.00,,2013-03-25 13:52:00,
2013-03-25 09:03:00,30.0,29.0,29.76,North,360,7.0,15.0,95,0.00,,,0.00,,2013-03-25 14:03:00,
2013-03-25 09:12:00,30.0,29.0,29.76,North,360,7.0,15.0,95,0.00,,,0.00,,2013-03-25 14:12:00,
2013-03-25 09:22:00,29.0,27.0,29.76,NNW,336,8.0,13.0,94,0.00,,,0.00,,2013-03-25 14:22:00,
2013-03-25 09:32:00,29.0,27.0,29.76,NNE,16,8.0,14.0,94,0.00,,,0.00,,2013-03-25 14:32:00,
2013-03-25 09:42:00,29.0,27.0,29.76,NNE,16,8.0,14.0,94,0.00,,,0.00,,2013-03-25 14:42:00,
2013-03-25 09:53:00,29.0,27.0,29.78,North,11,8.0,15.0,94,0.00,,,0.00,,2013-03-25 14:53:00,
2013-03-25 10:02:00,30.0,28.0,29.79,North,360,7.0,13.0,93,0.00,,,0.00,,2013-03-25 15:02:00,
2013-03-25 10:12:00,30.0,28.0,29.79,North,360,7.0,13.0,93,0.00,,,0.00,,2013-03-25 15:12:00,
2013-03-25 10:23:00,30.0,28.0,29.79,NW,322,7.0,15.0,93,0.00,,,0.00,,2013-03-25 15:23:00,
2013-03-25 10:32:00,30.0,28.0,29.79,NNW,327,9.0,14.0,93,0.00,,,0.00,,2013-03-25 15:32:00,
2013-03-25 10:42:00,30.0,28.0,29.79,NNW,327,9.0,14.0,93,0.00,,,0.00,,2013-03-25 15:42:00,
2013-03-25 10:53:00,30.0,28.0,29.80,North,355,8.0,17.0,92,0.00,,,0.00,,2013-03-25 15:53:00,
2013-03-25 11:03:00,30.0,28.0,29.80,NNW,341,11.0,17.0,92,0.00,,,0.00,,2013-03-25 16:03:00,
2013-03-25 11:12:00,30.0,28.0,29.80,NNW,341,11.0,17.0,92,0.00,,,0.00,,2013-03-25 16:12:00,
2013-03-25 11:23:00,30.0,28.0,29.80,NNW,341,11.0,17.0,92,0.00,,,0.00,,2013-03-25 16:23:00,
2013-03-25 11:33:00,31.0,29.0,29.82,NNE,17,9.0,15.0,91,0.00,,,0.00,,2013-03-25 16:33:00,
2013-03-25 11:43:00,31.0,29.0,29.82,NNE,17,9.0,15.0,91,0.00,,,0.00,,2013-03-25 16:43:00,
2013-03-25 11:53:00,31.0,28.0,29.82,North,5,10.0,17.0,90,0.00,,,0.00,,2013-03-25 16:53:00,
2013-03-25 12:02:00,32.0,29.0,29.82,NNW,346,10.0,15.0,90,0.00,,,0.00,,2013-03-25 17:02:00,
2013-03-25 12:12:00,32.0,29.0,29.82,NNW,346,10.0,15.0,90,0.00,,,0.00,,2013-03-25 17:12:00,
2013-03-25 12:23:00,32.0,29.0,29.83,NNW,328,9.0,15.0,90,0.00,,,0.00,,2013-03-25 17:23:00,
2013-03-25 12:32:00,33.0,30.0,29.83,NW,319,10.0,17.0,90,0.00,,,0.00,,2013-03-25 17:32:00,
2013-03-25 12:42:00,33.0,30.0,29.83,NW,319,10.0,17.0,90,0.00,,,0.00,,2013-03-25 17:42:00,
2013-03-25 12:53:00,33.0,30.0,29.83,NNW,329,7.0,17.0,90,0.00,,,0.00,,2013-03-25 17:53:00,
2013-03-25 13:03:00,34.0,31.0,29.84,NNW,336,8.0,14.0,88,0.00,,,0.00,,2013-03-25 18:03:00,
2013-03-25 13:12:00,34.0,31.0,29.84,NNW,336,8.0,14.0,88,0.00,,,0.00,,2013-03-25 18:12:00,
2013-03-25 13:22:00,35.0,32.0,29.84,North,5,8.0,16.0,87,0.03,,,0.03,,2013-03-25 18:22:00,
2013-03-25 13:33:00,35.0,31.0,29.85,NNW,334,10.0,15.0,85,0.05,,,0.05,,2013-03-25 18:33:00,
2013-03-25 13:42:00,35.0,31.0,29.85,NNW,334,10.0,15.0,85,0.05,,,0.05,,2013-03-25 18:42:00,
2013-03-25 13:53:00,35.0,31.0,29.85,NNW,334,10.0,15.0,85,0.05,,,0.05,,2013-03-25 18:53:00,
2013-03-25 14:03:00,35.0,31.0,29.86,North,10,8.0,15.0,84,0.14,,,0.14,,2013-03-25 19:03:00,
2013-03-25 14:12:00,35.0,31.0,29.86,North,10,8.0,15.0,84,0.14,,,0.14,,2013-03-25 19:12:00,
2013-03-25 14:23:00,35.0,31.0,29.86,North,351,8.0,14.0,85,0.13,,,0.16,,2013-03-25 19:23:00,
2013-03-25 14:33:00,35.0,31.0,29.86,NNW,337,9.0,16.0,85,0.13,,,0.18,,2013-03-25 19:33:00,
2013-03-25 14:42:00,35.0,31.0,29.86,NNW,337,9.0,16.0,85,0.13,,,0.18,,2013-03-25 19:42:00,
2013-03-25 14:52:00,35.0,31.0,29.87,North,5,10.0,17.0,84,0.10,,,0.20,,2013-03-25 19:52:00,
2013-03-25 15:02:00,35.0,31.0,29.88,North,355,8.0,15.0,85,0.08,,,0.22,,2013-03-25 20:02:00,
2013-03-25 15:12:00,35.0,31.0,29.88,North,355,8.0,15.0,85,0.08,,,0.22,,2013-03-25 20:12:00,
2013-03-25 15:22:00,34.0,30.0,29.88,NNW,340,8.0,13.0,86,0.08,,,0.24,,2013-03-25 20:22:00,
2013-03-25 15:32:00,34.0,31.0,29.89,North,11,6.0,12.0,88,0.07,,,0.25,,2013-03-25 20:32:00,
2013-03-25 15:42:00,34.0,31.0,29.89,North,11,6.0,12.0,88,0.07,,,0.25,,2013-03-25 20:42:00,
2013-03-25 15:52:00,34.0,31.0,29.90,North,349,6.0,10.0,88,0.06,,,0.26,,2013-03-25 20:52:00,
2013-03-25 16:02:00,34.0,31.0,29.91,NNE,28,5.0,8.0,88,0.04,,,0.27,,2013-03-25 21:02:00,
2013-03-25 16:12:00,34.0,31.0,29.91,NNE,28,5.0,8.0,88,0.04,,,0.27,,2013-03-25 21:12:00,
2013-03-25 16:22:00,33.0,31.0,29.91,North,5,4.0,9.0,91,0.03,,,0.27,,2013-03-25 21:22:00,
2013-03-25 16:33:00,34.0,31.0,29.92,North,355,8.0,11.0,90,0.02,,,0.27,,2013-03-25 21:33:00,
2013-03-25 16:42:00,34.0,31.0,29.92,North,355,8.0,11.0,90,0.02,,,0.27,,2013-03-25 21:42:00,
2013-03-25 16:52:00,34.0,31.0,29.93,NNE,19,4.0,10.0,90,0.02,,,0.28,,2013-03-25 21:52:00,
2013-03-25 17:03:00,34.0,31.0,29.94,NNW,339,4.0,11.0,90,0.02,,,0.28,,2013-03-25 22:03:00,
2013-03-25 17:12:00,34.0,31.0,29.94,NNW,339,4.0,11.0,90,0.02,,,0.28,,2013-03-25 22:12:00,
2013-03-25 17:23:00,33.0,31.0,29.95,North,360,5.0,10.0,91,0.02,,,0.28,,2013-03-25 22:23:00,
2013-03-25 17:33:00,33.0,31.0,29.96,North,360,8.0,13.0,91,0.02,,,0.28,,2013-03-25 22:33:00,
2013-03-25 17:42:00,33.0,31.0,29.96,North,360,8.0,13.0,91,0.02,,,0.28,,2013-03-25 22:42:00,
2013-03-25 17:52:00,33.0,31.0,29.96,North,360,6.0,11.0,92,0.02,,,0.30,,2013-03-25 22:52:00,
2013-03-25 18:02:00,33.0,30.0,29.97,NNE,17,6.0,11.0,89,0.01,,,0.30,,2013-03-25 23:02:00,
2013-03-25 18:12:00,33.0,30.0,29.97,NNE,17,6.0,11.0,89,0.01,,,0.30,,2013-03-25 23:12:00,
2013-03-25 18:23:00,34.0,31.0,29.98,North,11,6.0,11.0,87,0.01,,,0.30,,2013-03-25 23:23:00,
2013-03-25 18:32:00,34.0,31.0,29.98,North,5,4.0,7.0,88,0.02,,,0.31,,2013-03-25 23:32:00,
2013-03-25 18:42:00,34.0,31.0,29.98,North,5,4.0,7.0,88,0.02,,,0.31,,2013-03-25 23:42:00,
2013-03-25 18:53:00,34.0,31.0,29.99,North,10,4.0,9.0,87,0.01,,,0.31,,2013-03-25 23:53:00,
2013-03-25 19:02:00,33.0,30.0,30.01,NNW,336,4.0,6.0,87,0.01,,,0.31,,2013-03-26 00:02:00,
2013-03-25 19:12:00,33.0,30.0,30.01,NNW,336,4.0,6.0,87,0.01,,,0.31,,2013-03-26 00:12:00,
2013-03-25 19:22:00,33.0,29.0,30.01,North,360,4.0,10.0,86,0.01,,,0.31,,2013-03-26 00:22:00,
2013-03-25 19:32:00,33.0,30.0,30.02,North,350,6.0,10.0,87,0.00,,,0.31,,2013-03-26 00:32:00,
2013-03-25 19:42:00,33.0,30.0,30.02,North,350,6.0,10.0,87,0.00,,,0.31,,2013-03-26 00:42:00,
2013-03-25 19:52:00,33.0,30.0,30.03,NNW,340,6.0,11.0,89,0.00,,,0.31,,2013-03-26 00:52:00,
2013-03-25 20:02:00,32.0,29.0,30.03,NNW,346,4.0,10.0,88,0.00,,,0.31,,2013-03-26 01:02:00,
2013-03-25 20:12:00,32.0,29.0,30.03,NNW,346,4.0,10.0,88,0.00,,,0.31,,2013-03-26 01:12:00,
2013-03-25 20:22:00,32.0,29.0,30.04,North,360,4.0,8.0,90,0.00,,,0.31,,2013-03-26 01:22:00,
2013-03-25 20:32:00,32.0,30.0,30.04,NNW,340,5.0,8.0,91,0.00,,,0.31,,2013-03-26 01:32:00,
2013-03-25 20:42:00,32.0,30.0,30.04,NNW,340,5.0,8.0,91,0.00,,,0.31,,2013-03-26 01:42:00,
2013-03-25 20:52:00,32.0,29.0,30.05,NNW,342,5.0,9.0,90,0.00,,,0.31,,2013-03-26 01:52:00,
2013-03-25 21:02:00,32.0,29.0,30.05,North,5,4.0,10.0,89,0.00,,,0.31,,2013-03-26 02:02:00,
2013-03-25 21:12:00,32.0,29.0,30.05,North,5,4.0,10.0,89,0.00,,,0.31,,2013-03-26 02:12:00,
2013-03-25 21:22:00,32.0,29.0,30.05,NNW,345,5.0,8.0,88,0.00,,,0.31,,2013-03-26 02:22:00,
2013-03-25 21:32:00,32.0,28.0,30.06,North,5,4.0,9.0,86,0.00,,,0.31,,2013-03-26 02:32:00,
2013-03-25 21:42:00,32.0,28.0,30.06,North,5,4.0,9.0,86,0.00,,,0.31,,2013-03-26 02:42:00,
2013-03-25 21:52:00,32.0,28.0,30.06,NNW,327,4.0,8.0,85,0.00,,,0.31,,2013-03-26 02:52:00,
2013-03-25 22:02:00,32.0,28.0,30.07,NNW,341,5.0,11.0,84,0.00,,,0.31,,2013-03-26 03:02:00,
2013-03-25 22:12:00,32.0,28.0,30.07,NNW,341,5.0,11.0,84,0.00,,,0.31,,2013-03-26 03:12:00,
2013-03-25 22:22:00,32.0,27.0,30.07,NNW,332,4.0,8.0,82,0.00,,,0.31,,2013-03-26 03:22:00,
2013-03-25 22:33:00,32.0,27.0,30.08,North,355,6.0,9.0,81,0.00,,,0.31,,2013-03-26 03:33:00,
2013-03-25 22:42:00,32.0,27.0,30.08,North,355,6.0,9.0,81,0.00,,,0.31,,2013-03-26 03:42:00,
2013-03-25 22:53:00,32.0,27.0,30.08,NW,325,6.0,10.0,80,0.00,,,0.31,,2013-03-26 03:53:00,
2013-03-25 23:03:00,32.0,27.0,30.08,NNW,331,5.0,10.0,80,0.00,,,0.31,,2013-03-26 04:03:00,
2013-03-25 23:12:00,32.0,27.0,30.08,NNW,331,5.0,10.0,80,0.00,,,0.31,,2013-03-26 04:12:00,
2013-03-25 23:23:00,32.0,27.0,30.08,NNE,14,4.0,8.0,82,0.00,,,0.31,,2013-03-26 04:23:00,
2013-03-25 23:32:00,32.0,27.0,30.08,NNW,342,5.0,8.0,82,0.00,,,0.31,,2013-03-26 04:32:00,
2013-03-25 23:43:00,32.0,27.0,30.08,NNW,342,5.0,8.0,82,0.00,,,0.31,,2013-03-26 04:43:00,
2013-03-25 23:53:00,32.0,27.0,30.09,North,5,3.0,8.0,83,0.00,,,0.31,,2013-03-26 04:53:00,